User: anonymous   Login
Location: Ferchesar
(52.6477°N, 12.4298°E)
Time: 20:47:30
(UTC+01:00)
Language:

A-11 Canister half - Orbit

View from above orbital plane
View from above orbital plane
View from above satellite
View from above satellite

Ground track
Ground track

The orbit data is extracted from the following two-line orbital elements,

1 00053U 60009E   21335.49410280 -.00000150  00000-0 -65002-3 0  9999
2 00053  47.2782  58.2393 0100488 213.0695 146.3781 12.17265953733371
Epoch (UTC): 01 December 2021 11:51:30
Eccentricity: 0.0100488
inclination: 47.2782°
perigee height: 1524 km
apogee height: 1684 km
right ascension of ascending node: 58.2393°
argument of perigee: 213.0695°
revolutions per day: 12.17265953
mean anomaly at epoch: 146.3781°
orbit number at epoch: 73337

The dashed part of the orbit path shows where the satellite is in the earth's shadow,  

DLR